New York, NY

7:06 AM EST on January 16, 2018 (GMT -0500)
La Guardia

Weather History for KLGA - September, 2011

Change the Weather History Date:

Wednesday, September 7, 2011

  Actual Average Record
Temperature  
Mean Temperature 66 °F 72 °F  
Max Temperature 69 °F 79 °F 90 °F (1945)
Min Temperature 62 °F 65 °F 53 °F (1962)
Degree Days  
Heating Degree Days 0 0  
Month to date heating degree days 0 0  
Since 1 July heating degree days 0 1  
Cooling Degree Days 1 7  
Month to date cooling degree days 59 57  
Year to date cooling degree days 1212 1090  
Growing Degree Days 15 (Base 50)    
Moisture  
Dew Point 63 °F    
Average Humidity 90    
Maximum Humidity 93    
Minimum Humidity 87    
Precipitation  
Precipitation 0.92 in 0.12 in 2.37 in (1998)
Month to date precipitation 3.23 0.83  
Year to date precipitation 49.63 31.08  
Snow  
Snow 0.00 in 0.00 in - ()
Month to date snowfall 0.0 0.0  
Since 1 July snowfall 0.0 0.0  
Snow Depth 0.00 in    
Sea Level Pressure  
Sea Level Pressure 30.08 in    
Wind  
Wind Speed 15 mph (ENE)    
Max Wind Speed 24 mph    
Max Gust Speed 30 mph    
Visibility 6 miles    
Events Rain , Thunderstorm    
T = Trace of Precipitation, MM = Missing Value Source: NWS Daily Summary

Daily Weather History Graph

Daily Weather History Graph

Search for Another Location

Airport or City:

Trip Planner

Search our weather history database for the weather conditions in past years. The results will help you decide how hot, cold, wet, or windy it might be!

Date:

Astronomy

Sep. 07, 2011 Rise Set
Actual Time 6:27 AM EDT 7:18 PM EDT
Civil Twilight 6:00 AM EDT 7:46 PM EDT
Nautical Twilight 5:27 AM EDT 8:19 PM EDT
Astronomical Twilight 4:52 AM EDT 8:53 PM EDT
Moon 4:35 PM EDT (9/7) 1:40 AM EDT (9/7)
Length of Visible Light 13h 46m
Length of Day
12h 50m
Waxing Gibbous, 79% of the Moon is Illuminated
Sep 7
Waxing Gibbous
Sep 12
Full
Sep 20
Last Quarter
Sep 27
New
Oct 3
First Quarter

Hourly Weather History & Observations

Time (EDT) Temp. Dew Point Humidity Pressure Visibility Wind Dir Wind Speed Gust Speed Precip Events Conditions
12:51 AM 62.1 °F 59.0 °F 90% 30.10 in 5.0 mi ENE 10.4 mph - 0.05 in Rain Light Rain
1:44 AM 62.6 °F 60.8 °F 94% 30.09 in 3.0 mi ENE 13.8 mph - 0.01 in Rain Light Rain
1:51 AM 62.1 °F 60.1 °F 93% 30.09 in 3.0 mi ENE 11.5 mph - 0.02 in Rain Light Rain
2:51 AM 63.0 °F 60.1 °F 90% 30.08 in 5.0 mi ENE 10.4 mph - 0.02 in Rain Light Rain
3:18 AM 62.6 °F 60.8 °F 94% 30.08 in 3.0 mi ENE 12.7 mph - 0.05 in Rain Light Rain
3:21 AM 62.6 °F 60.8 °F 94% 30.08 in 3.0 mi ENE 11.5 mph - 0.06 in Rain Light Rain
3:29 AM 62.6 °F 60.8 °F 94% 30.09 in 3.0 mi ENE 10.4 mph - 0.06 in Rain Light Rain
3:51 AM 63.0 °F 61.0 °F 93% 30.08 in 4.0 mi ENE 10.4 mph - 0.11 in Rain Light Rain
4:44 AM 62.6 °F 60.8 °F 94% 30.08 in 5.0 mi ENE 11.5 mph - 0.08 in Rain Light Rain
4:51 AM 63.0 °F 61.0 °F 93% 30.08 in 6.0 mi ENE 11.5 mph - 0.08 in Rain Light Rain
5:15 AM 62.6 °F 60.8 °F 94% 30.07 in 5.0 mi ENE 16.1 mph - 0.01 in   Overcast
5:40 AM 62.6 °F 60.8 °F 94% 30.07 in 4.0 mi ENE 13.8 mph - 0.04 in Rain Rain
5:49 AM 62.6 °F 60.8 °F 94% 30.07 in 7.0 mi ENE 13.8 mph - 0.04 in Rain Light Rain
5:51 AM 62.6 °F 60.8 °F 94% 30.07 in 8.0 mi ENE 15.0 mph - N/A Rain Light Rain
6:22 AM 64.4 °F 60.8 °F 88% 30.08 in 8.0 mi ENE 17.3 mph - 0.00 in   Light Drizzle
6:51 AM 64.0 °F 62.1 °F 93% 30.09 in 6.0 mi ENE 15.0 mph - 0.01 in   Light Drizzle
7:47 AM 64.4 °F 62.6 °F 94% 30.09 in 7.0 mi ENE 11.5 mph 20.7 mph 0.00 in   Overcast
7:51 AM 64.9 °F 63.0 °F 93% 30.09 in 7.0 mi NE 13.8 mph 19.6 mph 0.00 in   Overcast
8:03 AM 66.2 °F 62.6 °F 88% 30.09 in 9.0 mi NE 15.0 mph - N/A   Overcast
8:51 AM 64.9 °F 62.1 °F 90% 30.10 in 4.0 mi ENE 18.4 mph - 0.00 in   Light Drizzle
9:46 AM 64.4 °F 62.6 °F 94% 30.10 in 2.0 mi NE 17.3 mph - 0.00 in Rain Light Rain
9:51 AM 64.9 °F 63.0 °F 93% 30.10 in 2.0 mi NE 18.4 mph 25.3 mph 0.01 in Rain Rain
10:01 AM 66.2 °F 62.6 °F 88% 30.10 in 4.0 mi NE 17.3 mph - 0.00 in   Light Drizzle
10:12 AM 66.2 °F 62.6 °F 88% 30.11 in 2.0 mi ENE 18.4 mph - 0.00 in   Light Drizzle
10:43 AM 66.2 °F 64.4 °F 94% 30.10 in 4.0 mi ENE 16.1 mph - 0.00 in   Overcast
10:51 AM 66.0 °F 63.0 °F 90% 30.10 in 5.0 mi ENE 18.4 mph - 0.00 in   Light Drizzle
10:58 AM 66.2 °F 64.4 °F 94% 30.10 in 2.5 mi ENE 16.1 mph - 0.01 in Rain Light Rain
11:33 AM 66.2 °F 64.4 °F 94% 30.09 in 7.0 mi ENE 16.1 mph - 0.01 in   Overcast
11:44 AM 66.2 °F 64.4 °F 94% 30.09 in 10.0 mi ENE 18.4 mph - 0.01 in   Overcast
11:51 AM 66.9 °F 64.9 °F 93% 30.09 in 10.0 mi ENE 16.1 mph - 0.01 in   Overcast
12:40 PM 68.0 °F 64.4 °F 88% 30.08 in 4.0 mi ENE 16.1 mph - 0.00 in   Light Drizzle
12:51 PM 68.0 °F 64.9 °F 90% 30.07 in 6.0 mi ENE 18.4 mph - 0.00 in   Light Drizzle
1:51 PM 68.0 °F 66.0 °F 93% 30.09 in 7.0 mi ENE 15.0 mph - 0.02 in Rain Light Rain
2:51 PM 68.0 °F 64.9 °F 90% 30.08 in 5.0 mi NE 13.8 mph - 0.00 in Rain Light Rain
3:51 PM 68.0 °F 64.9 °F 90% 30.06 in 10.0 mi ENE 18.4 mph - 0.03 in   Overcast
4:41 PM 68.0 °F 64.4 °F 88% 30.06 in 9.0 mi ENE 13.8 mph - 0.00 in   Overcast
4:51 PM 68.0 °F 64.9 °F 90% 30.06 in 10.0 mi ENE 16.1 mph - 0.00 in   Overcast
5:36 PM 68.0 °F 64.4 °F 88% 30.05 in 5.0 mi NE 16.1 mph - 0.00 in Rain Light Rain
5:43 PM 68.0 °F 64.4 °F 88% 30.06 in 2.0 mi NE 15.0 mph - 0.02 in Rain Rain
5:51 PM 66.9 °F 64.9 °F 93% 30.06 in 2.5 mi ENE 13.8 mph - 0.06 in Rain Light Rain
5:58 PM 66.2 °F 64.4 °F 94% 30.06 in 3.0 mi ENE 15.0 mph - 0.02 in Rain Rain
6:51 PM 68.0 °F 64.4 °F 88% 30.05 in 10.0 mi NE 13.8 mph - N/A   Overcast
7:51 PM 68.0 °F 64.9 °F 90% 30.06 in 10.0 mi ENE 17.3 mph - N/A   Overcast
8:51 PM 68.0 °F 64.9 °F 90% 30.06 in 10.0 mi NE 13.8 mph - N/A   Overcast
9:51 PM 66.9 °F 64.0 °F 90% 30.04 in 8.0 mi ENE 16.1 mph - 0.02 in Rain Light Rain
10:51 PM 66.0 °F 64.0 °F 93% 30.03 in 6.0 mi ENE 16.1 mph - 0.05 in Rain Light Rain
10:56 PM 66.2 °F 64.4 °F 94% 30.03 in 10.0 mi ENE 17.3 mph - 0.00 in Rain , Thunderstorm Light Thunderstorms and Rain
11:44 PM 66.2 °F 64.4 °F 94% 30.02 in 3.0 mi ENE 15.0 mph - 0.20 in Rain Rain
11:51 PM 66.0 °F 64.0 °F 93% 30.02 in 7.0 mi ENE 16.1 mph - 0.20 in Rain Light Rain